Regional Weather Roundup
Issued by NWS

Home | Current Version | Previous Version | Text Only | Print | Product List | Glossary On
Versions: 1 2 3 4 5 6 7 8 9 10 11 12 13 14 15 16 17 18 19 20 21 22 23 24 25 26 27 28 29 30 31 32 33 34 35 36 37 38 39 40 41 42 43 44 45 46 47 48 49 50
000
ASUS43 KMKX 010421
RWRWI

WISCONSIN REGIONAL WEATHER ROUNDUP
NATIONAL WEATHER SERVICE MILWAUKEE/SULLIVAN WI
1100 PM CDT MON AUG 31 2015

NOTE: "FAIR" INDICATES FEW OR NO CLOUDS BELOW 12,000 FEET WITH NO
SIGNIFICANT WEATHER AND/OR OBSTRUCTIONS TO VISIBILITY.

WIZ001-002-006>008-014>016-023>028-010500-
NORTHWEST WISCONSIN

CITY           SKY/WX    TMP DP  RH WIND       PRES   REMARKS
SUPERIOR ARPT  PTCLDY    72  70  93 W6        29.86S
ASHLAND        CLEAR     73  71  93 S6        29.89F
HAYWARD        PTCLDY    72  69  90 S8        29.93S
SIREN          PTCLDY    73  70  92 SE3       29.91S
CUMBERLAND     MOCLDY    68  68 100 S3        29.94S FOG
RICE LAKE      PTCLDY    71  68  90 SE5       29.95S
CHETEK         PTCLDY   N/A N/A N/A CALM      29.94S
LADYSMITH      CLEAR     72  69  91 S6        29.97F
EAU CLAIRE     CLEAR     74  69  85 S9        29.94S
MENOMONIE      PTCLDY    71  69  95 CALM      29.93F FOG
NEW RICHMOND   CLEAR     73  71  94 S6        29.92F
OSCEOLA        MOCLDY    74  74 100 CALM      29.94S
$$

WIZ003>005-009-010-017-018-010500-
NORTH CENTRAL WISCONSIN

CITY           SKY/WX    TMP DP  RH WIND       PRES   REMARKS
MANITOWISH WTR PTCLDY    67  67 100 S6        29.98S
ARBOR VITAE    CLEAR     72  70  93 S7        29.99S
WOODRUFF       CLEAR     72  70  93 S7        29.99S
RHINELANDER    CLEAR     67  65  93 SW6       30.00F
EAGLE RIVER    CLEAR     65  65 100 CALM      29.99F FOG
LAND O LAKES   CLEAR     67  65  93 SW6       30.00S
PHILLIPS       CLEAR     69  68  96 S8        29.97S
TOMAHAWK       CLEAR     64  63  96 CALM      30.00F FOG
MEDFORD        CLEAR     66  65  98 S6        30.00S FOG
MERRILL          N/A     64  64 100 CALM      30.00S FOG
$$

WIZ029-030-035-036-043>047-010500-
CENTRAL WISCONSIN

CITY           SKY/WX    TMP DP  RH WIND       PRES   REMARKS
WAUSAU         CLEAR     70  67  90 S7        29.99R
MOSINEE        CLEAR     64  64 100 S6        30.01S FOG
MARSHFIELD     CLEAR     68  64  87 S7        30.00S FOG
STEVENS POINT  CLEAR     64  64  97 CALM      30.01S
WAUPACA        CLEAR     67  67  98 CALM      30.00S FOG
WAUTOMA        FOG       64  64 100 CALM      30.01S VSB 1
WISC RAPIDS    CLEAR     70  66  87 S5        30.01S
CAMP DOUGLAS   PTCLDY    68  68 100 S5        29.98F
$$

WIZ011>013-019>022-031-037>040-048>050-010500-
NORTHEAST WISCONSIN

CITY           SKY/WX    TMP DP  RH WIND       PRES   REMARKS
ANTIGO         CLEAR     66  65  99 S6        30.02S
SHAWANO        CLEAR     70  68  92 CALM      29.99S
OCONTO         CLEAR     64  64 100 CALM      29.99S
STURGEON BAY   CLEAR     64  63  94 S8        30.02S
GREEN BAY      CLEAR     69  67  93 S6        30.00S FOG
MANITOWOC      CLEAR     57  56  96 MISG      30.02F
APPLETON       PTCLDY    68  66  94 VRB3      29.99F
CLINTONVILLE   FOG       64  64 100 CALM      30.00R VSB 1/2
OSHKOSH        CLEAR     67  65  93 S6        30.00F FOG
$$

WIZ032>034-041-042-053>061-010500-
SOUTHWEST WISCONSIN

CITY           SKY/WX    TMP DP  RH WIND       PRES   REMARKS
LA CROSSE      PTCLDY    73  70  90 S5        29.96S
SPARTA         CLEAR     68  65  92 CALM      29.98F
VIROQUA          N/A     71  71 100 SE6       30.01S
BOSCOBEL       CLEAR     72  69  90 CALM      29.99R
PRAIRIE DU CHI PTCLDY    74  69  85 CALM      29.98R
PLATTEVILLE    CLEAR     73  70  92 SE7       30.00F
$$

WIZ056-057-062-063-064-067-068-010500-
SOUTH CENTRAL WISCONSIN

CITY           SKY/WX    TMP DP  RH WIND       PRES   REMARKS
REEDSBURG      CLEAR     69  68  94 CALM      29.99S
BARABOO/DELLS  CLEAR     68  65  90 S8        30.00F
LONE ROCK      CLEAR     69  66  90 NE3       30.00S
MINERAL POINT  CLEAR     72  68  88 SE5       30.02S
MADISON        CLEAR     73  68  84 S5        30.01S
MIDDLETON      CLEAR     66  66  98 CALM      30.02S
WATERTOWN      CLEAR     69  69 100 CALM      30.02S
MONROE         CLEAR     72  68  88 S7        30.03S
JANESVILLE     CLEAR     70  68  94 CALM      30.02S
$$

WIZ051-052-058>065-066-070>072-010500-
SOUTHEAST WISCONSIN

CITY           SKY/WX    TMP DP  RH WIND       PRES   REMARKS
MILWAUKEE      PTCLDY    69  65  86 S6        30.03S
WAUKESHA       CLEAR     68  64  88 S3        30.05S
MILWAUKEE/TIMM CLEAR     70  63  78 S6        30.04S
RACINE         CLEAR     69  65  86 S6        30.05S
BURLINGTON     CLEAR     64  64  99 CALM      30.04S FOG
KENOSHA        CLEAR     66  64  93 S3        30.05R
FOND DU LAC    CLEAR     67  66  97 S7        30.02S
SHEBOYGAN      CLEAR     62  62 100 S5        30.02F FOG
WEST BEND      CLEAR     63  63 100 CALM      30.04R FOG
JUNEAU         CLEAR     68  66  94 CALM      30.04S FOG
$$

LSZ147-162-010500-
LAKE SUPERIOR

STATION/POSITION TIME  TEMP    WIND        PRES    WAVE
                       AIR SEA DIR/SP/G            HT/PER
                 (UTC) (F)     (DEG/KT/KT) (MB)    (FT/S)
W MID LAKE BUOY  0350   62 55  220/ 10/ 12 1011.2F   1/ 3
DEVILS ISLAND    0400   73     190/ 10/ 13 1011.0F
PORT WING        0300   76     180/  8/ 12 1011.9R
SAXON HARBOR     0340   75     200/  7/ 13 1011.9S
$$

LMZ867-665-643>646-010500-
LAKE MICHIGAN

STATION/POSITION TIME  TEMP    WIND        PRES    WAVE
                       AIR SEA DIR/SP/G            HT/PER
                 (UTC) (F)     (DEG/KT/KT) (MB)    (FT/S)
CHAMBERS ISLAND  0300   69     160/  5/  8 1015.2F
S GREEN BAY BUOY 0400   68 64  180/  8/ 10 1016.7
N MID LAKE BUOY  0350   65 65  200/ 14/ 16 1015.3F   3/ 4
NORTHPORT PIER   0300   63     150/  5/  8 1015.6S
KEWAUNEE LAKESHO 0300   51     170/  3/  5 1015.4R
SHEBOYGAN LAKESH 0400   60     180/ 11/ 11 1016.9F
PORT WASHINGTON  0300   59      CALM  /  2 1017.9R
ATWATER BUOY     0400   56 51  150/  6/  6 1018.3R
MILWAUKEE LAKESH 0410   60     120/  2/  2   N/A
S MID LAKE BUOY  0350   71 70  160/  8/  8 1016.9S   0
KENOSHA   LAKESH 0400   70     180/  8/ 10 1016.9S
$$

TC  - TEMPERATURE IN CELSIUS
VSB - VISIBILITY IN STATUTE MILES
WCI - WIND CHILL INDEX
HX  - HEAT INDEX




USA.gov is the U.S. government's official web portal to all federal, state and local government web resources and services.